Location: Unspecified
(0.0000°N, 0.0000°E)
Time: 00:37:44
(UTC+00:00)

deb Kosmos-1275 - Pass Details

Date: 06 March 2026
Orbit: 936 x 1103 km, 82.9° (Epoch: 14 April)

Event Time Altitude Azimuth Distance (km) Brightness Sun altitude
Rises 19:49:53 0° 335° (NNW) 3,909 ? -24.6°
Reaches altitude 10° 19:52:53 10° 324° (NW) 2,950 ? -25.3°
Maximum altitude 19:58:34 28° 267° (W) 1,911 ? -26.7°
Drops below altitude 10° 20:04:11 10° 211° (SSW) 2,907 ? -28.1°
Sets 20:07:09 0° 199° (SSW) 3,841 ? -28.8°
